Location: Aurora Center
(43.5271°N, 98.5894°W)
Time: 12:57:41
(UTC-05:00)

A-11 Canister half - Pass Details

Date: 21 July 2024
Orbit: 1524 x 1684 km, 47.3° (Epoch: 18 May)

Event Time Altitude Azimuth Distance (km) Brightness Sun altitude
Rises 10:17:36 0° 283° (WNW) 4,866 11.2 41.9°
Reaches altitude 10° 10:20:47 10° 286° (WNW) 3,859 10.8 42.5°
Maximum altitude 10:30:38 77° 12° (NNE) 1,625 9.9 44.2°
Drops below altitude 10° 10:40:07 10° 99° (E) 3,729 12.0 45.9°
Sets 10:43:09 0° 101° (E) 4,697 12.3 46.4°
